Weather History for Reading, PA

Change the Weather History Date:

Friday, August 16, 2013

  Actual Average Record
Temperature  
Mean Temperature 67 °F 73 °F  
Max Temperature 80 °F 84 °F 97 °F (1997)
Min Temperature 54 °F 63 °F 51 °F (1994)
Degree Days  
Heating Degree Days 0 0  
Month to date heating degree days 0 0  
Since 1 June heating degree days 2 25  
Since 1 July heating degree days 0 1  
Cooling Degree Days 2 8  
Month to date cooling degree days 111 142  
Year to date cooling degree days 860 694  
Since 1 June cooling degree days 761 634  
Growing Degree Days 16 (Base 50)    
Moisture  
Dew Point 54 °F    
Average Humidity 66    
Maximum Humidity 93    
Minimum Humidity 39    
Precipitation  
Precipitation 0.00 in 0.12 in 1.77 in (1920)
Month to date precipitation 3.50 1.85  
Year to date precipitation 28.17 27.17  
Sea Level Pressure  
Sea Level Pressure 30.18 in    
Wind  
Wind Speed 1 mph (North)    
Max Wind Speed 6 mph    
Max Gust Speed 9 mph    
Visibility 10 miles    
Events      
T = Trace of Precipitation, MM = Missing Value Source: NWS Daily Summary

Daily Weather History Graph

Daily Weather History Graph

Search for Another Location

Airport:

Trip Planner

Search our weather history database for the weather conditions in past years. The results will help you decide how hot, cold, wet, or windy it might be!

Date:

Astronomy

Aug. 16, 2013 Rise Set
Actual Time 6:15 AM EDT 7:59 PM EDT
Civil Twilight 5:46 AM EDT 8:28 PM EDT
Nautical Twilight 5:11 AM EDT 9:03 PM EDT
Astronomical Twilight 4:33 AM EDT 9:41 PM EDT
Moon 4:16 PM EDT (8/16) 1:16 AM EDT (8/16)
Length of Visible Light 14h 41m
Length of Day
13h 43m
Waxing Gibbous, 74% of the Moon is Illuminated
Aug 16
Waxing Gibbous
Aug 20
Full
Aug 28
Last Quarter
Sep 5
New
Sep 12
First Quarter

Hourly Weather History & Observations

Time (EDT) Temp. Dew Point Humidity Pressure Visibility Wind Dir Wind Speed Gust Speed Precip Events Conditions
1:54 AM 57.0 °F 54.0 °F 89% 30.16 in 10.0 mi Calm Calm - N/A   Clear
2:54 AM 55.9 °F 53.1 °F 90% 30.16 in 10.0 mi West 4.6 mph - N/A   Clear
3:54 AM 55.0 °F 53.1 °F 93% 30.16 in 10.0 mi Calm Calm - N/A   Clear
4:54 AM 54.0 °F 52.0 °F 93% 30.15 in 10.0 mi Calm Calm - N/A   Clear
5:54 AM 54.0 °F 52.0 °F 93% 30.17 in 5.0 mi Calm Calm - N/A   Clear
6:54 AM 54.0 °F 52.0 °F 93% 30.18 in 10.0 mi Calm Calm - N/A   Clear
7:54 AM 57.9 °F 55.0 °F 90% 30.19 in 10.0 mi Calm Calm - N/A   Clear
8:54 AM 64.0 °F 57.0 °F 78% 30.19 in 10.0 mi Calm Calm - N/A   Clear
9:54 AM 69.1 °F 55.0 °F 61% 30.19 in 10.0 mi Calm Calm - N/A   Clear
10:54 AM 73.0 °F 55.9 °F 55% 30.19 in 10.0 mi North 4.6 mph - N/A   Clear
11:54 AM 75.9 °F 51.1 °F 42% 30.18 in 10.0 mi Calm Calm - N/A   Scattered Clouds
12:54 PM 75.9 °F 52.0 °F 43% 30.19 in 10.0 mi East 3.5 mph - N/A   Partly Cloudy
1:54 PM 75.9 °F 51.1 °F 42% 30.18 in 10.0 mi Calm Calm - N/A   Scattered Clouds
2:54 PM 78.1 °F 51.1 °F 39% 30.17 in 10.0 mi Calm Calm - N/A   Partly Cloudy
3:54 PM 77.0 °F 51.1 °F 40% 30.16 in 10.0 mi Calm Calm - N/A   Scattered Clouds
4:54 PM 78.1 °F 51.1 °F 39% 30.17 in 10.0 mi NNE 3.5 mph - N/A   Overcast
5:54 PM 78.1 °F 51.1 °F 39% 30.17 in 10.0 mi Calm Calm - N/A   Scattered Clouds
6:54 PM 77.0 °F 51.1 °F 40% 30.17 in 10.0 mi Calm Calm - N/A   Partly Cloudy
7:54 PM 73.9 °F 53.1 °F 48% 30.18 in 10.0 mi Calm Calm - N/A   Partly Cloudy
8:54 PM 68.0 °F 57.0 °F 68% 30.19 in 10.0 mi Calm Calm - N/A   Clear
9:54 PM 66.9 °F 57.0 °F 70% 30.20 in 10.0 mi Calm Calm - N/A   Clear
10:54 PM 64.0 °F 57.9 °F 80% 30.20 in 10.0 mi Calm Calm - N/A   Clear
11:54 PM 61.0 °F 57.0 °F 87% 30.22 in 10.0 mi SSW 4.6 mph - N/A   Clear